DW3735 Weather Reports


time (UTC)temp
C
wind
direction
speed
KPH
gust
KPH
rain 1hr
cm
rain 24hr
cm
rain mn
cm
humidity
%
barometer
mb
20260507060017 8 270 1.6 4.8 0.00 0.00 0.00 47 1006.0
20260507055037 8 270 1.6 4.8 0.00 0.00 0.00 48 1006.1
20260507054016 8 0.0 1.6 0.00 0.00 0.00 50 1006.1
20260507053017 8 0.0 0.0 0.00 0.00 0.00 52 1006.1
20260507052016 8 0.0 0.0 0.00 0.00 0.00 50 1006.1
20260507051017 9 0.0 0.0 0.00 0.00 0.00 49 1006.2
20260507050057 9 0.0 0.0 0.00 0.00 0.00 51 1006.2
20260507045016 9 0.0 0.0 0.00 0.00 0.00 52 1006.3
20260507044037 9 0.0 0.0 0.00 0.00 0.00 54 1006.4
20260507043036 9 0.0 0.0 0.00 0.00 0.00 54 1006.5
20260507042017 9 0.0 0.0 0.00 0.00 0.00 52 1006.6
20260507041016 9 0.0 0.0 0.00 0.00 0.00 53 1006.6
20260507040016 8 0.0 0.0 0.00 0.00 0.00 52 1006.6
20260507035037 9 0.0 0.0 0.00 0.00 0.00 56 1006.8
20260507034017 9 0.0 0.0 0.00 0.00 0.00 52 1006.7
20260507033017 9 0.0 0.0 0.00 0.00 0.00 54 1006.7
20260507032017 9 0.0 0.0 0.00 0.00 0.00 54 1006.8
20260507031017 9 0.0 0.0 0.00 0.00 0.00 54 1006.8
20260507030017 9 0.0 0.0 0.00 0.00 0.00 54 1006.7
20260507025017 9 0.0 0.0 0.00 0.00 0.00 54 1006.6
20260507024017 9 0.0 0.0 0.00 0.00 0.00 52 1006.7
20260507023037 10 0.0 0.0 0.00 0.00 0.00 52 1006.7
20260507022017 10 0.0 0.0 0.00 0.00 0.00 51 1006.7
20260507021017 10 0.0 0.0 0.00 0.00 0.00 50 1006.6
20260507020017 10 0.0 0.0 0.00 0.00 0.00 50 1006.7
20260507015017 10 0.0 0.0 0.00 0.00 0.00 53 1006.7
20260507014017 10 0.0 0.0 0.00 0.00 0.00 52 1006.7
20260507013017 10 0.0 0.0 0.00 0.00 0.00 47 1006.8
20260507012017 11 0.0 0.0 0.00 0.00 0.00 47 1006.8
20260507011017 11 0.0 0.0 0.00 0.00 0.00 47 1006.9
20260507010017 11 0.0 0.0 0.00 0.00 0.00 46 1006.7
20260507005057 11 0.0 0.0 0.00 0.00 0.00 45 1006.6
20260507004017 11 0.0 0.0 0.00 0.00 0.00 44 1006.6
20260507003017 11 0.0 0.0 0.00 0.00 0.00 43 1006.4
20260507002017 11 0.0 0.0 0.00 0.00 0.00 43 1006.3
20260507001037 11 0.0 0.0 0.00 0.00 0.00 43 1006.2
20260507000017 12 0.0 0.0 0.00 0.00 0.00 43 1006.1
20260506235017 12 0.0 0.0 0.00 0.00 0.00 42 1006.0
20260506234056 12 0.0 0.0 0.00 0.00 0.00 41 1005.8
20260506233017 12 0.0 3.2 0.00 0.00 0.00 40 1005.8
20260506232017 12 0.0 3.2 0.00 0.00 0.00 40 1005.8
20260506231017 12 0.0 3.2 0.00 0.00 0.00 40 1005.7
20260506230037 12 0.0 3.2 0.00 0.00 0.00 40 1005.7
20260506225017 12 0.0 3.2 0.00 0.00 0.00 41 1005.7
20260506224017 12 0.0 1.6 0.00 0.00 0.00 39 1005.9
20260506223017 12 0.0 3.2 0.00 0.00 0.00 39 1005.8
20260506222017 13 293 1.6 4.8 0.00 0.00 0.00 38 1005.9
20260506221037 13 293 1.6 6.4 0.00 0.00 0.00 37 1005.9
20260506220017 13 270 1.6 4.8 0.00 0.00 0.00 36 1005.8
20260506215017 13 270 1.6 6.4 0.00 0.00 0.00 37 1005.9
20260506214017 13 270 1.6 4.8 0.00 0.00 0.00 36 1005.9
20260506213017 13 270 1.6 4.8 0.00 0.00 0.00 37 1005.7
20260506212017 13 293 1.6 4.8 0.00 0.00 0.00 35 1005.6
20260506211016 13 293 1.6 6.4 0.00 0.00 0.00 35 1005.5
20260506210016 13 270 3.2 6.4 0.00 0.00 0.00 35 1005.5
20260506205017 13 270 1.6 3.2 0.00 0.00 0.00 35 1005.6
20260506204017 13 0.0 3.2 0.00 0.00 0.00 35 1005.6
20260506203017 13 293 1.6 4.8 0.00 0.00 0.00 36 1005.7
20260506202017 13 0.0 0.0 0.00 0.00 0.00 37 1005.6
20260506201017 13 0.0 3.2 0.00 0.00 0.00 37 1005.6
20260506200017 13 0.0 0.0 0.00 0.00 0.00 37 1005.7
20260506195017 13 270 1.6 3.2 0.00 0.00 0.00 37 1005.7
20260506194017 13 270 1.6 9.7 0.00 0.00 0.00 38 1005.8
20260506193017 13 270 1.6 4.8 0.00 0.00 0.00 38 1005.8
20260506192057 13 270 4.8 12.9 0.00 0.00 0.00 34 1005.9
20260506191037 13 0.0 3.2 0.00 0.00 0.00 37 1006.0
20260506190018 13 0.0 3.2 0.00 0.00 0.00 37 1006.0
20260506185037 13 0.0 3.2 0.00 0.00 0.00 39 1006.0
20260506184017 13 0.0 0.0 0.00 0.00 0.00 37 1006.0
20260506183017 13 0.0 3.2 0.00 0.00 0.00 36 1006.0
20260506182017 13 225 1.6 4.8 0.00 0.00 0.00 39 1006.1
20260506181017 13 0.0 1.6 0.00 0.00 0.00 34 1006.2
20260506180037 13 270 4.8 12.9 0.00 0.00 0.00 35 1006.4
20260506175017 13 180 3.2 6.4 0.00 0.00 0.00 35 1006.5
20260506174017 13 293 4.8 9.7 0.00 0.00 0.00 36 1006.4
20260506173017 13 270 1.6 6.4 0.00 0.00 0.00 38 1006.6
20260506172017 13 225 1.6 3.2 0.00 0.00 0.00 37 1006.6
20260506171017 12 248 1.6 4.8 0.00 0.00 0.00 40 1006.6
20260506170057 12 0.0 1.6 0.00 0.00 0.00 41 1006.6
20260506165017 12 0.0 3.2 0.00 0.00 0.00 40 1006.6
20260506164017 12 338 1.6 6.4 0.00 0.00 0.00 38 1006.7
20260506163016 12 0.0 6.4 0.00 0.00 0.00 42 1007.0
20260506162057 12 180 1.6 6.4 0.00 0.00 0.00 40 1007.0
20260506161017 12 0.0 3.2 0.00 0.00 0.00 43 1007.1
20260506160017 11 180 1.6 3.2 0.00 0.05 0.00 43 1007.1
20260506155017 11 0.0 1.6 0.00 0.41 0.00 41 1007.2
20260506154057 11 0.0 0.0 0.00 0.51 0.00 46 1007.5
20260506153017 11 0.0 0.0 0.00 0.51 0.00 47 1007.8
20260506152037 11 0.0 1.6 0.00 0.53 0.00 46 1007.8
20260506151017 10 0.0 0.0 0.00 0.58 0.00 47 1007.9
20260506150016 10 0.0 0.0 0.00 0.58 0.00 51 1008.1
20260506145017 10 0.0 0.0 0.00 0.58 0.00 49 1008.1
20260506144037 9 0.0 0.0 0.00 0.58 0.00 52 1008.1
20260506143017 8 0.0 0.0 0.00 0.58 0.00 51 1007.9
20260506142037 8 0.0 0.0 0.00 0.58 0.00 52 1008.0
20260506141017 8 0.0 0.0 0.00 0.58 0.00 53 1007.9
20260506140017 8 0.0 0.0 0.00 0.58 0.00 51 1008.0
20260506135017 7 0.0 0.0 0.00 0.58 0.00 51 1007.9
20260506134017 7 0.0 0.0 0.00 0.61 0.00 55 1008.0
20260506133017 7 0.0 0.0 0.00 0.61 0.00 57 1008.0
20260506132017 7 0.0 0.0 0.00 0.61 0.00 59 1008.1
20260506131057 6 0.0 0.0 0.00 0.61 0.00 60 1008.0
20260506130017 6 0.0 0.0 0.00 0.61 0.00 62 1008.1
20260506125016 6 0.0 0.0 0.00 0.61 0.00 62 1008.0
20260506124017 6 0.0 0.0 0.00 0.61 0.00 61 1007.8
20260506123017 6 0.0 0.0 0.00 0.61 0.00 63 1007.9
20260506122016 5 0.0 0.0 0.00 0.61 0.00 65 1007.8
20260506121017 5 0.0 0.0 0.00 0.61 0.00 68 1007.8
20260506120017 5 0.0 0.0 0.00 0.61 0.00 69 1007.8
20260506115016 5 0.0 0.0 0.00 0.61 0.00 71 1007.8
20260506114017 4 0.0 0.0 0.00 0.61 0.00 73 1008.0
20260506113017 4 0.0 0.0 0.00 0.61 0.00 75 1008.0
20260506112017 4 0.0 0.0 0.00 0.61 0.00 75 1008.0
20260506111037 3 0.0 0.0 0.00 0.61 0.00 76 1007.9
20260506110017 3 0.0 0.0 0.00 0.61 0.00 74 1007.9
20260506105017 3 0.0 0.0 0.00 0.61 0.00 74 1007.9
20260506104016 3 0.0 0.0 0.00 0.61 0.00 75 1007.7
20260506103017 3 0.0 0.0 0.00 0.61 0.00 76 1007.5
20260506102017 3 0.0 0.0 0.00 0.61 0.00 76 1007.8
20260506101017 3 0.0 0.0 0.00 0.61 0.00 75 1007.8
20260506100017 3 0.0 0.0 0.00 0.61 0.00 74 1007.9
20260506095017 3 0.0 0.0 0.00 0.61 0.00 74 1007.9
20260506094017 3 0.0 0.0 0.00 0.61 0.00 74 1007.7
20260506093017 3 0.0 0.0 0.00 0.61 0.00 73 1007.4
20260506092017 3 0.0 0.0 0.00 0.61 0.00 72 1007.5
20260506091017 3 0.0 0.0 0.00 0.61 0.00 72 1007.7
20260506090017 3 0.0 0.0 0.00 0.61 0.00 72 1007.5
20260506085017 3 0.0 0.0 0.00 0.61 0.00 71 1007.5
20260506084017 4 0.0 0.0 0.00 0.61 0.00 70 1007.4
20260506083017 4 0.0 0.0 0.00 0.61 0.00 68 1007.4
20260506082017 4 0.0 0.0 0.00 0.61 0.00 68 1007.6
20260506081017 4 0.0 0.0 0.00 0.61 0.00 68 1007.6
20260506073017 5 0.0 0.0 0.00 0.61 0.00 62 1007.2
20260506072017 5 0.0 0.0 0.00 0.61 0.00 62 1007.3
20260506071017 5 0.0 0.0 0.00 0.61 0.00 62 1007.2
20260506062017 6 0.0 0.0 0.00 0.61 0.00 56 1007.2
20260506061037 6 0.0 0.0 0.00 0.61 0.00 57 1007.2